GLO1013 SBRJ-SBSP

Flight info

Callsign GLO1013
Flight time 0h 43m
Altitude 30000
Route NAXOP UZ45 IBDAL
Aircraft B738/M-SDE2E3FGHIRWXY/LB1

Departure

Time 2026-05-01 12:59
Airport Santos Dumont Airport (SBRJ)

Arrival

Time 2026-05-01 13:43
Airport Congonhas–Deputado Freitas Nobre Airport (SBSP)
Time Latitude Longitude Altitude Speed Heading
2026-05-01 12:44 -22.90783 -43.16615 21 ft 0 kts 267°
2026-05-01 12:53 -22.90781 -43.16583 21 ft 6 kts 267°
2026-05-01 12:53 -22.90781 -43.16552 21 ft 2 kts 283°
2026-05-01 12:54 -22.90786 -43.16541 21 ft 2 kts 346°
2026-05-01 12:54 -22.90796 -43.16539 25 ft 0 kts 356°
2026-05-01 12:57 -22.90752 -43.16542 21 ft 12 kts 356°
2026-05-01 12:57 -22.90565 -43.16554 21 ft 13 kts 358°
2026-05-01 12:57 -22.90500 -43.16511 21 ft 13 kts 81°
2026-05-01 12:58 -22.90495 -43.16416 23 ft 12 kts 89°
2026-05-01 12:58 -22.90469 -43.16336 27 ft 5 kts 86°
2026-05-01 12:58 -22.90489 -43.16318 25 ft 3 kts 173°
2026-05-01 12:59 -22.90493 -43.16318 25 ft 0 kts 176°
2026-05-01 12:59 -22.90843 -43.16297 25 ft 101 kts 176°
2026-05-01 12:59 -22.92983 -43.16066 1087 ft 184 kts 156°
2026-05-01 13:00 -22.94980 -43.14082 2820 ft 202 kts 135°
2026-05-01 13:00 -22.96045 -43.12957 3262 ft 224 kts 133°
2026-05-01 13:01 -22.98366 -43.10547 4692 ft 236 kts 140°
2026-05-01 13:01 -22.99870 -43.09889 5492 ft 245 kts 177°
2026-05-01 13:01 -23.03075 -43.11680 6773 ft 282 kts 221°
2026-05-01 13:02 -23.04565 -43.13095 7642 ft 287 kts 220°
2026-05-01 13:07 -23.35926 -43.48240 23113 ft 350 kts 258°
2026-05-01 13:07 -23.36501 -43.50822 23720 ft 352 kts 257°
2026-05-01 13:07 -23.37089 -43.53421 24235 ft 354 kts 257°
2026-05-01 13:08 -23.37684 -43.56027 24777 ft 356 kts 257°
2026-05-01 13:08 -23.38287 -43.58644 25319 ft 357 kts 257°
2026-05-01 13:08 -23.38896 -43.61265 25861 ft 358 kts 257°
2026-05-01 13:08 -23.39511 -43.63903 26378 ft 360 kts 256°
2026-05-01 13:09 -23.40132 -43.66551 26872 ft 362 kts 257°
2026-05-01 13:09 -23.40754 -43.69216 27378 ft 364 kts 257°
2026-05-01 13:09 -23.41378 -43.71895 27890 ft 366 kts 257°
2026-05-01 13:09 -23.42005 -43.74589 28396 ft 368 kts 257°
2026-05-01 13:10 -23.42634 -43.77296 28894 ft 370 kts 257°
2026-05-01 13:10 -23.43267 -43.80015 29401 ft 371 kts 256°
2026-05-01 13:10 -23.43903 -43.82744 29906 ft 372 kts 256°
2026-05-01 13:10 -23.44542 -43.85490 30155 ft 378 kts 257°
2026-05-01 13:11 -23.45196 -43.88307 30175 ft 388 kts 257°
2026-05-01 13:11 -23.46546 -43.94140 30190 ft 406 kts 256°
2026-05-01 13:12 -23.47943 -44.00227 30198 ft 421 kts 257°
2026-05-01 13:12 -23.49371 -44.06447 30175 ft 424 kts 257°
2026-05-01 13:13 -23.50805 -44.12685 30183 ft 425 kts 257°
2026-05-01 13:13 -23.52236 -44.18921 30182 ft 423 kts 257°
2026-05-01 13:14 -23.53656 -44.25126 30175 ft 421 kts 256°
2026-05-01 13:14 -23.55072 -44.31313 30186 ft 419 kts 257°
2026-05-01 13:15 -23.56469 -44.37427 30187 ft 418 kts 257°
2026-05-01 13:15 -23.57869 -44.43564 30180 ft 417 kts 257°
2026-05-01 13:16 -23.59264 -44.49716 30194 ft 418 kts 257°
2026-05-01 13:16 -23.60666 -44.55877 30182 ft 419 kts 257°
2026-05-01 13:17 -23.63472 -44.68245 30180 ft 421 kts 257°
2026-05-01 13:18 -23.65570 -44.77548 30187 ft 421 kts 257°
2026-05-01 13:18 -23.66966 -44.83751 30180 ft 421 kts 257°
2026-05-01 13:19 -23.68361 -44.89952 30191 ft 421 kts 257°
2026-05-01 13:20 -23.70450 -44.99256 30192 ft 420 kts 257°
2026-05-01 13:20 -23.71840 -45.05447 30192 ft 420 kts 257°
2026-05-01 13:21 -23.73909 -45.14724 30187 ft 419 kts 257°
2026-05-01 13:21 -23.74593 -45.17795 29949 ft 416 kts 257°
2026-05-01 13:21 -23.75272 -45.20840 29548 ft 408 kts 257°
2026-05-01 13:22 -23.75938 -45.23828 29073 ft 402 kts 258°
2026-05-01 13:22 -23.76594 -45.26772 28556 ft 395 kts 258°
2026-05-01 13:22 -23.77236 -45.29656 28060 ft 387 kts 257°
2026-05-01 13:22 -23.77864 -45.32478 27595 ft 379 kts 257°
2026-05-01 13:23 -23.78481 -45.35269 27142 ft 381 kts 258°
2026-05-01 13:23 -23.79118 -45.38137 26678 ft 397 kts 257°
2026-05-01 13:23 -23.79747 -45.41077 26166 ft 396 kts 261°
2026-05-01 13:23 -23.80065 -45.44036 25804 ft 389 kts 266°
2026-05-01 13:24 -23.80210 -45.46976 25411 ft 386 kts 268°
2026-05-01 13:24 -23.80309 -45.49893 25049 ft 382 kts 269°
2026-05-01 13:24 -23.80409 -45.52782 24679 ft 382 kts 268°
2026-05-01 13:25 -23.80652 -45.58603 23936 ft 389 kts 268°
2026-05-01 13:25 -23.80788 -45.61551 23505 ft 387 kts 268°
2026-05-01 13:25 -23.80927 -45.64470 23107 ft 383 kts 268°
2026-05-01 13:25 -23.81072 -45.67402 22720 ft 380 kts 268°
2026-05-01 13:26 -23.81216 -45.70270 22351 ft 377 kts 268°
2026-05-01 13:26 -23.81359 -45.73118 21990 ft 374 kts 268°
2026-05-01 13:26 -23.81504 -45.75945 21633 ft 372 kts 267°
2026-05-01 13:26 -23.81646 -45.78758 21282 ft 370 kts 268°
2026-05-01 13:27 -23.81784 -45.81527 20933 ft 369 kts 268°
2026-05-01 13:27 -23.81923 -45.84326 20581 ft 368 kts 268°
2026-05-01 13:27 -23.82202 -45.89898 19877 ft 367 kts 267°
2026-05-01 13:28 -23.82476 -45.95457 19158 ft 366 kts 268°
2026-05-01 13:28 -23.82611 -45.98227 18805 ft 365 kts 267°
2026-05-01 13:29 -23.82880 -46.03748 18051 ft 362 kts 268°
2026-05-01 13:29 -23.83144 -46.09194 17332 ft 357 kts 267°
2026-05-01 13:30 -23.83655 -46.19912 15976 ft 351 kts 267°
2026-05-01 13:31 -23.83904 -46.25208 15320 ft 347 kts 268°
2026-05-01 13:31 -23.84275 -46.33095 14294 ft 346 kts 267°
2026-05-01 13:32 -23.84520 -46.38323 13601 ft 344 kts 268°
2026-05-01 13:33 -23.84881 -46.46042 12612 ft 333 kts 268°
2026-05-01 13:33 -23.85115 -46.51055 11969 ft 327 kts 268°
2026-05-01 13:34 -23.85341 -46.55987 11355 ft 322 kts 268°
2026-05-01 13:34 -23.85367 -46.60810 10723 ft 314 kts 284°
2026-05-01 13:35 -23.82918 -46.64551 10193 ft 301 kts 326°
2026-05-01 13:35 -23.81210 -46.65736 10152 ft 285 kts 328°
2026-05-01 13:35 -23.77795 -46.68059 9453 ft 283 kts 328°
2026-05-01 13:36 -23.76153 -46.69189 9340 ft 275 kts 328°
2026-05-01 13:36 -23.74543 -46.70302 9291 ft 274 kts 328°
2026-05-01 13:36 -23.71379 -46.72496 9167 ft 273 kts 328°
2026-05-01 13:37 -23.69730 -46.73639 8838 ft 278 kts 328°
2026-05-01 13:37 -23.68651 -46.74387 8638 ft 277 kts 328°
2026-05-01 13:37 -23.66486 -46.75887 8240 ft 274 kts 328°
2026-05-01 13:37 -23.64882 -46.76998 7948 ft 273 kts 328°
2026-05-01 13:38 -23.61661 -46.79228 7096 ft 276 kts 328°
2026-05-01 13:38 -23.60058 -46.80336 6731 ft 269 kts 329°
2026-05-01 13:38 -23.58353 -46.81034 6390 ft 260 kts 355°
2026-05-01 13:39 -23.56625 -46.80796 6125 ft 252 kts 19°
2026-05-01 13:39 -23.55108 -46.79900 5819 ft 246 kts 38°
2026-05-01 13:39 -23.53976 -46.78515 5557 ft 240 kts 53°
2026-05-01 13:39 -23.53089 -46.77033 5306 ft 233 kts 55°
2026-05-01 13:40 -23.52255 -46.75569 5082 ft 221 kts 59°
2026-05-01 13:40 -23.51973 -46.73986 4850 ft 213 kts 100°
2026-05-01 13:40 -23.52724 -46.72671 4679 ft 206 kts 139°
2026-05-01 13:40 -23.53858 -46.71757 4430 ft 199 kts 143°
2026-05-01 13:41 -23.54986 -46.70954 4195 ft 186 kts 145°
2026-05-01 13:41 -23.56032 -46.70238 3963 ft 170 kts 144°
2026-05-01 13:41 -23.56967 -46.69589 3803 ft 149 kts 146°
2026-05-01 13:41 -23.57798 -46.69015 3607 ft 136 kts 144°
2026-05-01 13:42 -23.58587 -46.68470 3440 ft 134 kts 145°
2026-05-01 13:42 -23.59391 -46.67912 3259 ft 139 kts 145°
2026-05-01 13:42 -23.60205 -46.67349 3065 ft 137 kts 145°
2026-05-01 13:42 -23.61008 -46.66794 2879 ft 136 kts 147°
2026-05-01 13:43 -23.61800 -46.66252 2691 ft 133 kts 145°
2026-05-01 13:43 -23.62551 -46.65725 2604 ft 119 kts 144°
2026-05-01 13:43 -23.62930 -46.65466 2608 ft 13 kts 149°
2026-05-01 13:43 -23.63030 -46.65396 2609 ft 23 kts 146°
2026-05-01 13:44 -23.63170 -46.65394 2604 ft 16 kts 231°
2026-05-01 13:44 -23.63117 -46.65479 2601 ft 15 kts 327°
2026-05-01 13:44 -23.63025 -46.65520 2602 ft 14 kts 352°
2026-05-01 13:44 -23.62939 -46.65566 2602 ft 14 kts 328°
2026-05-01 13:45 -23.62860 -46.65621 2602 ft 13 kts 328°
2026-05-01 13:45 -23.62783 -46.65674 2602 ft 13 kts 327°
2026-05-01 13:45 -23.62711 -46.65726 2601 ft 13 kts 329°
2026-05-01 13:45 -23.62691 -46.65773 2600 ft 7 kts 250°
2026-05-01 13:46 -23.62714 -46.65815 2600 ft 1 kts 237°
2026-05-01 13:46 -23.62717 -46.65820 2600 ft 0 kts 236°
2026-05-01 13:46 -23.62717 -46.65821 2600 ft 0 kts 236°